This demonstration page uses our WeatherBlox Daily Observations layout. Learn more.

Left ArrowRight Arrow

41.86663, -103.66717

Hourly Observations for January 1, 2017

Temp ( °F °C ) Dew Point ( °F °C ) Humidity (%) Winds ( mph kmh ) Pressure ( in mb ) Visibility ( mi km ) Precip ( " mm )
12:53 am 00:53 Clear 20 -6.7 14 -10 78 78 NE 7 11 29.75 1007 10 16 0.00 0.00
1:53 am 01:53 Clear 17 -8.3 12 -11.1 80 80 NNW 5 7 29.74 1007 10 16 0.00 0.00
2:53 am 02:53 Clear 16 -8.9 11 -11.7 80 80 NE 3 6 29.75 1008 10 16 0.00 0.00
3:53 am 03:53 Clear 16 -8.9 11 -11.7 80 80 N 5 7 29.73 1007 10 16 0.00 0.00
4:53 am 04:53 Clear 16 -8.9 11 -11.7 80 80 Calm 29.74 1007 10 16 0.00 0.00
5:53 am 05:53 Clear 14 -10 10 -12.2 84 84 Calm 29.75 1008 10 16 0.00 0.00
6:53 am 06:53 Clear 13 -10.6 9 -12.8 84 84 ESE 7 11 29.76 1008 10 16 0.00 0.00
7:53 am 07:53 Sunny 14 -10 9 -12.8 80 80 Calm 29.76 1008 10 16 0.00 0.00
8:53 am 08:53 Sunny 19 -7 16 -9 86 86 SE 6 9 29.88 1012 10 16 0.00 0.00
9:53 am 09:53 Sunny 23 -5 18 -7.8 81 81 ESE 8 13 29.75 1007 10 16 0.00 0.00
10:53 am 10:53 Sunny 27 -2.8 20 -6.7 75 75 SE 5 7 29.72 1007 10 16 0.00 0.00
11:53 am 11:53 Sunny 30 -1.1 21 -6.1 69 69 ESE 7 11 29.69 1006 10 16 0.00 0.00
12:53 pm 12:53 Sunny 34 1.1 23 -5 64 64 E 7 11 29.65 1004 10 16 0.00 0.00
1:53 pm 13:53 Sunny 37 2.8 23 -5 57 57 E 8 13 29.64 1004 10 16 0.00 0.00
2:53 pm 14:53 Sunny 38 3.3 25 -3.9 60 60 ESE 13 20 29.64 1004 10 16 0.00 0.00
3:53 pm 15:53 Sunny 36 2.2 25 -3.9 64 64 SE 6 9 29.65 1004 10 16 0.00 0.00
4:53 pm 16:53 Clear 36 2 25 -4 65 65 S 7 11 29.77 1008 10 16 0.00 0.00
5:53 pm 17:53 Clear 30 -1.1 23 -5 75 75 ESE 9 15 29.70 1006 10 16 0.00 0.00
6:53 pm 18:53 Clear 29 -1.7 23 -5 78 78 E 9 15 29.72 1007 10 16 0.00 0.00
7:53 pm 19:53 Clear 29 -1.7 22 -5.6 75 75 ESE 10 17 29.73 1007 10 16 0.00 0.00
8:53 pm 20:53 Clear 28 -2.2 22 -5.6 78 78 E 8 13 29.72 1007 10 16 0.00 0.00
9:53 pm 21:53 Clear 27 -2.8 21 -6.1 78 78 E 9 15 29.72 1007 10 16 0.00 0.00
10:53 pm 22:53 Clear 27 -2.8 21 -6.1 78 78 E 5 7 29.73 1007 10 16 0.00 0.00
11:53 pm 23:53 Clear 27 -2.8 20 -6.7 75 75 E 8 13 29.71 1006 10 16 0.00 0.00

Powered by AerisWeather